Regional Weather Roundup
Issued by NWS Cleveland, OH

Home | Current Version | Previous Version | Graphics & Text | Print | Product List | Glossary On
Versions: 1 2 3 4 5 6 7 8 9 10 11 12 13 14 15 16 17 18 19 20 21 22 23 24 25 26 27 28 29 30 31 32 33 34 35 36 37 38 39 40 41 42 43 44 45 46 47 48 49 50
000
ASUS41 KCLE 270610
RWRCLE
OHIO REGIONAL WEATHER ROUNDUP
NATIONAL WEATHER SERVICE CLEVELAND, OH
200 AM EDT THU APR 27 2017

NOTE: "FAIR" INDICATES FEW OR NO CLOUDS BELOW 12,000 FEET WITH NO
SIGNIFICANT WEATHER AND/OR OBSTRUCTIONS TO VISIBILITY.

OHZ001>008-015>018-024>027-034-035-043-044-270700-
   NORTHWEST OHIO

CITY           SKY/WX    TMP DP  RH WIND       PRES   REMARKS
DEFIANCE       PTCLDY    68  50  52 S10       29.51F
FINDLAY        CLOUDY    67  47  48 S9        29.54S
TOLEDO EXPRESS CLEAR     68  50  52 VRB6      29.53R
TOLEDO EXEC    CLEAR     67  49  52 S10       29.54S
LIMA           CLEAR     66  49  54 S9        29.54S
$$

OHZ009>014-019>023-028>033-038-089-270700-
   NORTHEAST OHIO

CITY           SKY/WX    TMP DP  RH WIND       PRES   REMARKS
CLE-HOPKINS    MOCLDY    68  50  52 S10       29.61F
CLE-LAKEFRONT  CLEAR     71  52  50 S15       29.58F
CUY CO. ARPT   NOT AVBL
LORAIN-ELYRIA  CLEAR     67  50  54 S12       29.60S
ASHTABULA      CLEAR     65  56  72 SE8       29.66F
AKRON-CANTON   PTCLDY    66  52  60 SE12      29.65F
WOOSTER        CLEAR     62  51  67 S7        29.64S
MANSFIELD      CLOUDY    69  52  54 SE10      29.62S
YOUNGSTOWN     PTCLDY    62  54  74 SE8       29.67F
$$

OHZ042-051>053-060>062-070>072-077>081-270700-
  SOUTHWEST OHIO

CITY           SKY/WX    TMP DP  RH WIND       PRES   REMARKS
CINC-COVINGTON CLOUDY    69  55  60 S10       29.59R
CINC-LUNKEN    CLOUDY    60  56  86 W3        29.59S
HAMILTON       CLOUDY    73  55  53 S9G20     29.59R
DAYTON         CLOUDY    71  50  47 S16G25    29.57F
WRIGHT-PAT AFB CLOUDY    71  51  49 S14       29.58R
DAYTON GENERAL CLOUDY    70  53  54 S12       29.58S
WILMINGTON     PTCLDY    67  53  61 S12       29.61R
$$

OHZ036-037-039>041-045>050-054>059-063>069-073>076-082>088-270700-
  CENTRAL AND SOUTHEAST OHIO

CITY           SKY/WX    TMP DP  RH WIND       PRES   REMARKS
COLUMBUS       MOCLDY    71  53  52 SE10      29.60S
OSU AIRPORT    CLEAR     69  53  56 S5        29.60S
BOLTON FIELD   CLEAR     65  53  64 S6        29.61S
RICKENBACK AFB CLEAR     67  53  61 SE8       29.60S
NEWARK         CLEAR     61  51  70 S3        29.62S
MARION         CLOUDY    69  51  52 S12       29.59S
LANCASTER      CLEAR     65  54  67 SE7       29.62S
ZANESVILLE     CLEAR     63  50  62 SE3       29.63F
NEW PHILLY     NOT AVBL
$$




USA.gov is the U.S. government's official web portal to all federal, state and local government web resources and services.